Location: Unspecified
(48.5670°N, 0.0000°E)
Time: 13:00:18
(UTC+00:00)

Vanguard 1 Rocket - Visible Passes

Search period start: 16 May 2021 00:00
Search period end: 26 May 2021 00:00
Orbit: 652 x 4225 km, 34.3° (Epoch: 15 May)

Date Brightness Start Highest point End Pass type
(mag) Time Alt. Az. Time Alt. Az. Time Alt. Az.
16 May 11.6 03:11:49 10° S 03:29:04 23° SE 03:43:54 10° E visible
17 May 11.7 02:04:49 10° SSE 02:16:16 15° SE 02:27:07 10° ESE visible
18 May 11.5 03:11:24 10° S 03:30:47 28° SE 03:47:34 10° E visible
19 May 11.5 02:02:32 10° S 02:17:47 20° SE 02:32:19 10° E visible
20 May 11.6 00:59:41 10° SE 01:05:23 11° ESE 01:11:06 10° ESE visible
20 May 11.3 03:11:41 10° SSW 03:32:27 34° SE 03:50:48 10° E visible
21 May 11.4 02:01:47 10° S 02:19:15 25° SE 02:36:17 10° E visible
22 May 11.4 00:54:55 10° SSE 01:06:41 16° SE 01:18:49 10° E visible
22 May 11.2 03:12:27 10° SSW 03:34:07 39° SSE 03:53:45 10° E visible
23 May 11.2 02:02:54 12° S 02:20:42 30° SE 02:39:39 10° E visible
24 May 11.2 00:55:13 12° SSE 01:07:58 21° SE 01:23:31 10° E visible
24 May 11.1 03:13:36 10° SW 03:35:48 43° SSE 03:56:31 10° E visible
24 May 11.4 23:51:01 10° SE 23:55:59 11° ESE 00:01:10 10° ESE visible
25 May 11.1 02:04:43 14° SSW 02:22:10 35° SE 02:42:37 10° E visible
